sat.trackr.live / text

‹ back to catalog

STARLINK-32571

NORAD 62055 · 2024-216Z

PAYLOAD ACTIVE UNKNOWN

§ Identity

Operator
Country
US
Launch date
2024-11-21
Launch site
AFETR
Launch vehicle
Mass (kg)
RCS (m²)

Purposes: comms

External: N2YO · Heavens-Above · Gunter

§ Orbital elements

Epoch: 2026-05-25T03:19:45.289632Z

Period
94.27 min
Inclination
42.9992°
Eccentricity
0.0001679
Mean motion
15.27606117 rev/d
Perigee alt
481.8 km
Apogee alt
484.1 km
Semi-major
6,861.1 km
B*
4.7840e-4
RAAN
184.0482°
Arg perigee
256.9314°
Mean anomaly
103.1351°
Rev number
8,567

§ Raw data

STARLINK-325711 62055U 24216Z   26145.13871863  .00012936  00000+0  47840-3 0  99942 62055  42.9992 184.0482 0001679 256.9314 103.1351 15.27606117 85671

JSON: /api/v1/satellites/62055 · /tle

For live sub-satellite position, see the globe view (requires WebGL).

§ Visibility from observer

Set your observer location to see the next 7 days of passes ≥ 10°. The values pass through the URL so the page stays shareable.

No JS? Fill the form by hand. The geolocation button needs JavaScript.